Wind_Speed
40 39 44 52 59 65 70 75 79 73 53 39 20 21 22 25 29 28 31 28 23 25 25 30 42 59 52 52 58 62 68 62 57 60 42 49 61 62 59 58 56 54 59 52 50
39 41 47 54 60 64 69 75 78 66 46 33 21 22 24 26 29 30 32 30 26 23 27 32 35 55 52 53 50 60 58 56 50 53 59 43 51 58 60 58 57 57 54 53 51
38 42 48 53 59 64 70 76 77 62 42 29 23 21 26 28 30 32 32 32 28 23 25 32 34 51 64 50 52 53 50 49 56 52 57 54 43 55 60 58 56 55 56 54 54
38 43 47 54 58 64 71 77 79 59 37 27 25 23 26 29 33 34 32 33 30 23 27 32 37 41 56 58 57 40 46 59 60 55 60 65 57 37 60 58 57 58 57 54 53
38 42 46 54 59 65 73 79 79 60 37 26 25 24 27 29 33 33 35 31 31 26 29 34 42 35 50 61 46 52 46 59 62 66 47 60 42 57 54 59 54 59 59 54 51
38 42 46 53 59 66 73 79 78 56 36 24 26 26 29 30 33 33 36 32 30 24 34 34 42 41 40 56 57 50 55 55 61 60 63 59 59 37 57 56 61 62 59 56 54
41 44 47 54 60 67 73 80 73 53 34 25 23 25 29 30 32 34 34 32 31 20 33 41 37 44 40 38 58 44 47 50 60 61 53 61 63 59 52 54 59 59 57 58 57
40 43 48 54 62 66 73 79 67 49 30 23 21 22 27 29 32 34 31 33 31 16 33 39 41 44 34 41 55 49 49 56 58 58 47 56 59 60 55 53 57 55 58 58 56
39 44 49 55 61 66 73 79 64 47 29 21 18 20 25 28 31 31 31 35 29 12 28 36 45 43 39 42 45 62 48 53 55 64 60 46 59 60 58 53 53 56 59 59 56
38 43 50 55 61 67 73 79 63 47 25 16 16 20 23 28 30 29 31 34 22 13 20 32 44 46 48 39 45 54 61 45 55 54 63 57 51 58 61 55 55 56 56 56 56
36 42 48 55 62 67 73 77 66 42 18 15 17 20 23 25 29 29 31 34 20 8 8 32 40 48 41 38 36 47 52 51 51 53 53 62 62 58 52 55 53 55 57 56 53
34 41 47 53 61 68 73 78 71 55 20 13 17 21 21 26 30 30 31 31 19 11 13 16 36 47 46 46 36 38 46 53 48 45 52 59 63 61 61 54 53 50 53 55 55
33 39 46 53 59 67 74 80 67 32 20 14 17 19 21 25 30 30 31 31 17 8 8 6 36 43 48 46 41 37 34 48 46 44 47 54 59 58 61 62 60 51 50 50 51
32 38 45 51 58 66 73 81 62 29 20 14 15 16 20 24 28 32 31 31 16 8 10 7 28 40 46 44 37 40 36 33 41 39 39 43 50 59 57 54 58 56 53 51 50
31 37 43 50 56 65 73 79 66 37 17 20 14 16 18 22 27 30 31 31 25 7 4 7 23 37 38 40 35 33 36 32 31 32 32 38 44 47 48 54 53 57 62 57 52
30 36 43 47 55 63 71 78 67 36 18 11 12 16 17 21 26 31 31 33 27 11 4 11 27 35 37 31 34 34 32 30 30 28 30 29 35 47 47 49 49 53 54 58 56
29 36 41 48 54 63 69 76 66 33 23 13 12 16 18 21 25 28 30 33 22 12 4 19 25 40 20 38 38 35 36 30 28 27 26 32 34 35 43 47 52 48 50 47 48
29 34 40 47 54 61 67 73 70 41 18 11 11 16 19 21 23 27 31 35 20 14 9 19 29 29 25 35 37 36 35 29 28 34 29 25 32 30 40 48 46 46 52 53 48
28 34 40 46 52 59 65 70 72 46 18 12 11 12 18 20 22 26 31 34 17 14 12 22 26 19 27 37 36 40 38 21 25 26 27 27 28 32 33 39 44 46 46 52 49
28 34 39 44 50 56 63 67 71 53 17 11 11 12 18 21 23 26 30 30 25 5 15 21 24 22 32 35 39 39 31 21 32 30 24 27 27 28 28 36 39 43 41 41 40
27 32 37 42 48 54 60 63 68 61 19 11 12 12 16 20 22 24 28 28 24 5 16 23 22 22 23 27 30 33 29 27 32 33 27 25 28 24 30 31 37 36 34 33 35
26 32 35 41 46 53 58 62 68 61 25 11 10 11 13 17 19 23 25 25 25 7 19 21 21 19 18 16 25 28 31 31 28 31 26 23 28 26 33 31 29 29 29 29 28
25 30 34 39 43 49 55 58 63 60 38 11 9 11 11 14 15 20 21 21 25 12 18 20 17 13 16 14 26 30 32 29 23 17 19 16 22 28 33 33 28 25 26 27 26
23 29 34 37 42 47 51 54 60 60 45 14 8 8 9 11 15 17 18 18 22 16 16 16 14 13 13 15 30 32 26 25 19 14 14 14 14 23 34 30 27 25 25 27 26
23 27 32 34 39 44 48 50 57 59 50 20 8 7 8 9 12 13 16 13 14 15 10 12 15 9 3 20 35 33 24 22 18 12 16 13 18 22 31 31 27 27 27 26 26
21 26 30 32 36 40 45 47 52 57 52 33 7 6 7 8 11 13 13 9 11 10 10 12 13 7 3 22 32 34 29 22 19 17 16 14 15 17 30 30 27 27 26 26 25
21 24 29 32 34 38 43 45 48 54 51 41 12 7 6 6 6 10 10 10 6 7 9 6 10 9 3 22 31 37 30 23 18 19 15 11 11 15 20 25 28 27 27 25 25
Wind_Direction
329 335 339 346 348 349 349 347 347 346 335 323 307 317 326 331 335 332 332 334 333 267 251 225 217 208 215 216 213 205 210 208 203 206 198 212 215 212 212 214 213 213 217 214 214
329 333 341 348 352 351 349 348 348 345 332 316 308 299 312 323 329 327 329 329 329 276 246 230 213 211 215 213 214 213 211 203 201 207 202 204 219 215 210 212 212 214 217 216 215
329 333 340 348 352 350 350 347 349 345 329 304 300 303 307 316 320 324 326 324 322 272 248 229 210 214 212 217 205 214 208 202 203 213 200 196 212 216 212 209 212 215 216 217 214
331 336 344 349 351 351 350 347 348 345 327 300 293 301 309 315 316 322 323 318 320 273 245 227 208 221 212 214 206 213 200 202 205 204 214 206 198 200 211 209 211 214 214 216 216
334 338 347 348 351 352 350 347 349 347 331 300 287 299 310 314 316 322 322 318 322 261 224 217 207 209 218 214 215 204 203 205 205 208 203 207 200 210 207 208 205 212 213 215 216
337 341 350 347 349 350 350 347 348 348 333 306 286 292 306 314 317 320 324 322 330 265 221 210 209 204 219 215 213 213 212 210 210 210 209 202 206 199 206 205 211 212 213 215 218
338 342 353 348 351 351 351 348 351 348 333 313 297 292 304 315 317 325 324 331 335 269 222 211 205 206 212 217 212 213 210 220 210 211 210 210 209 204 208 208 212 212 212 216 217
335 343 353 350 353 352 352 348 352 349 334 317 308 300 310 319 321 328 333 339 341 277 220 209 205 203 208 205 210 201 205 215 212 211 202 217 210 206 208 210 212 212 212 216 217
338 346 353 351 353 353 352 348 352 352 337 321 316 310 318 320 329 335 341 345 345 315 219 212 204 199 201 206 210 216 208 213 216 215 213 210 208 211 208 212 211 213 212 213 216
341 349 354 353 356 355 353 349 355 352 338 327 321 323 324 331 337 342 349 349 341 315 228 212 205 201 207 194 202 211 212 213 216 218 216 211 209 211 210 210 212 213 212 214 217
348 353 356 357 359 357 353 350 357 352 343 341 331 330 329 341 345 348 351 351 339 303 292 213 204 200 210 206 201 203 206 212 218 221 218 214 212 214 207 204 211 215 215 214 217
351 354 358 356 359 358 356 351 359 354 347 340 332 335 337 350 349 352 352 352 344 292 291 227 204 199 203 198 181 191 203 207 211 222 218 217 216 215 210 210 205 213 216 215 217
356 355 357 358 1 359 357 353 1 356 337 330 333 340 342 350 352 357 357 355 349 301 278 268 205 198 199 201 193 189 192 200 206 216 218 217 220 219 219 210 209 209 215 216 218
357 357 358 359 2 1 359 356 1 1 339 326 333 338 343 349 353 357 357 357 353 304 263 258 205 198 197 199 194 195 189 194 202 213 214 218 222 224 221 219 217 209 214 215 217
357 358 359 359 4 4 2 358 359 1 339 329 329 333 343 345 345 353 357 356 354 316 245 233 195 193 189 190 189 191 197 188 189 207 213 216 218 215 218 223 219 215 220 221 221
358 0 359 3 5 6 2 359 355 357 347 330 328 339 339 340 347 351 357 357 351 349 240 182 183 178 173 182 199 191 185 190 195 205 220 217 217 216 215 216 216 212 216 218 221
0 2 2 6 6 8 3 360 356 356 358 342 336 344 342 334 348 353 357 358 347 2 171 166 179 178 169 172 188 189 196 199 192 191 214 213 212 216 220 214 213 214 210 217 223
2 2 5 7 8 8 5 0 358 2 347 341 337 348 342 335 348 359 360 357 344 0 161 170 192 181 181 182 181 183 175 179 192 188 204 211 210 209 216 212 211 212 212 217 220
0 4 8 8 9 8 6 2 357 -0 356 341 340 341 348 344 350 351 357 355 345 340 169 174 181 179 187 180 180 181 175 175 180 188 202 211 213 210 212 208 205 205 210 212 218
2 6 9 9 8 10 7 2 357 359 355 343 344 339 352 351 354 352 358 358 352 348 165 175 176 175 185 191 187 179 179 190 191 185 196 210 215 217 205 201 201 204 206 207 211
1 5 9 8 10 11 8 3 358 357 356 345 343 347 352 355 355 356 1 358 10 70 158 169 179 184 195 206 201 190 192 184 192 192 194 211 213 214 198 201 202 204 204 208 212
3 6 9 8 11 13 9 4 1 358 356 341 331 343 354 355 358 1 1 8 21 85 156 165 184 197 196 202 203 193 192 191 191 202 204 209 216 203 199 195 197 204 202 204 208
3 7 8 9 11 14 10 6 1 358 1 342 333 343 353 356 0 2 4 12 31 74 151 158 172 186 206 202 189 183 193 194 200 187 192 194 205 195 195 193 190 190 196 198 204
3 7 8 9 9 12 10 7 2 358 3 347 336 338 345 1 5 5 9 21 35 74 136 154 167 184 203 197 184 184 191 192 183 163 165 177 185 186 185 188 186 186 187 194 199
357 5 7 8 9 10 8 7 5 359 1 358 330 332 351 356 9 11 9 17 35 46 125 161 175 166 194 186 183 186 181 187 186 181 163 164 180 187 193 193 195 195 193 196 200
357 2 6 6 10 7 7 7 7 1 0 2 336 333 342 359 2 6 13 12 32 44 51 167 170 185 200 187 198 198 197 196 201 187 168 149 165 192 190 192 199 204 203 203 207
357 2 1 5 8 7 6 6 7 5 2 359 350 334 333 351 11 9 2 18 29 70 67 108 160 159 173 187 192 206 204 205 205 181 169 160 170 181 197 203 204 211 218 220 222
Height
5778 5768 5759 5749 5738 5725 5712 5697 5682 5667 5656 5650 5646 5642 5638 5634 5629 5625 5622 5619 5615 5613 5614 5617 5621 5632 5639 5647 5657 5661 5667 5679 5694 5704 5719 5727 5733 5741 5748 5754 5765 5771 5773 5789 5795
5772 5763 5753 5742 5731 5719 5705 5691 5675 5660 5648 5643 5641 5637 5632 5629 5625 5620 5616 5612 5610 5606 5609 5611 5615 5622 5630 5641 5648 5652 5661 5681 5695 5700 5709 5720 5726 5733 5739 5747 5755 5763 5775 5781 5789
5766 5758 5748 5736 5724 5712 5698 5683 5667 5651 5641 5636 5635 5631 5627 5624 5620 5615 5611 5606 5602 5600 5602 5605 5609 5614 5623 5632 5641 5648 5661 5679 5680 5693 5701 5708 5717 5724 5732 5738 5752 5759 5765 5773 5781
5760 5752 5741 5730 5718 5705 5691 5676 5660 5644 5635 5630 5628 5625 5622 5618 5614 5609 5605 5599 5593 5591 5594 5598 5603 5608 5617 5624 5636 5643 5654 5659 5670 5676 5685 5692 5707 5715 5724 5740 5742 5746 5756 5766 5775
5755 5746 5734 5725 5712 5699 5685 5669 5654 5638 5628 5623 5621 5619 5616 5613 5608 5603 5597 5592 5585 5582 5585 5588 5596 5604 5609 5619 5628 5638 5645 5651 5661 5664 5675 5687 5698 5711 5720 5725 5732 5738 5749 5760 5768
5750 5740 5728 5719 5707 5694 5679 5663 5648 5632 5623 5617 5615 5614 5611 5608 5602 5597 5591 5584 5577 5572 5576 5581 5588 5596 5602 5608 5618 5632 5638 5644 5650 5661 5672 5680 5690 5701 5711 5716 5724 5732 5744 5753 5761
5744 5735 5723 5713 5701 5688 5673 5657 5640 5626 5617 5612 5610 5608 5605 5602 5597 5591 5584 5577 5568 5562 5566 5573 5580 5589 5595 5604 5615 5623 5632 5638 5646 5654 5662 5674 5679 5694 5704 5708 5717 5726 5737 5744 5754
5739 5730 5718 5708 5696 5682 5666 5650 5633 5621 5611 5607 5605 5603 5600 5596 5591 5585 5578 5570 5561 5553 5557 5565 5573 5580 5588 5596 5607 5614 5621 5626 5640 5648 5659 5664 5678 5687 5694 5702 5711 5722 5728 5737 5749
5734 5724 5713 5704 5692 5677 5662 5645 5629 5616 5607 5603 5601 5599 5596 5591 5586 5579 5572 5563 5555 5550 5551 5559 5566 5574 5583 5590 5598 5602 5611 5622 5632 5641 5651 5661 5672 5677 5687 5697 5706 5715 5722 5730 5741
5729 5719 5709 5700 5687 5673 5658 5640 5624 5611 5604 5600 5598 5597 5592 5587 5581 5573 5566 5557 5551 5549 5548 5554 5560 5567 5574 5581 5588 5598 5610 5618 5627 5635 5645 5656 5665 5670 5681 5691 5702 5706 5715 5724 5734
5724 5714 5706 5696 5682 5669 5653 5636 5623 5609 5601 5597 5596 5593 5589 5584 5577 5569 5561 5554 5547 5547 5546 5549 5554 5563 5571 5579 5586 5593 5603 5615 5625 5633 5641 5651 5658 5665 5678 5684 5694 5701 5709 5719 5727
5719 5710 5702 5692 5679 5665 5651 5633 5615 5605 5599 5596 5594 5590 5585 5580 5574 5566 5559 5552 5545 5543 5543 5544 5550 5556 5564 5574 5581 5589 5598 5609 5619 5626 5634 5642 5650 5659 5669 5678 5687 5695 5704 5714 5721
5715 5706 5699 5688 5676 5662 5647 5629 5610 5601 5598 5594 5592 5588 5583 5579 5572 5565 5557 5549 5543 5541 5541 5540 5545 5552 5561 5571 5579 5588 5596 5606 5615 5621 5628 5638 5644 5649 5657 5669 5679 5688 5697 5705 5713
5711 5703 5695 5685 5673 5659 5645 5626 5610 5599 5597 5595 5591 5587 5582 5576 5570 5563 5555 5548 5541 5539 5538 5539 5541 5549 5559 5570 5579 5586 5595 5601 5610 5617 5626 5631 5637 5644 5656 5665 5674 5683 5692 5701 5708
5707 5699 5691 5681 5670 5657 5643 5624 5608 5599 5596 5592 5589 5585 5581 5576 5569 5563 5555 5546 5541 5537 5537 5538 5540 5548 5558 5570 5578 5586 5593 5600 5608 5616 5621 5626 5632 5642 5649 5654 5667 5679 5687 5695 5702
5704 5696 5688 5679 5667 5653 5640 5623 5607 5601 5595 5591 5588 5584 5580 5575 5568 5562 5555 5547 5541 5535 5535 5536 5541 5550 5561 5570 5576 5584 5592 5599 5607 5613 5616 5622 5631 5636 5641 5656 5666 5671 5679 5688 5696
5701 5693 5685 5675 5666 5650 5639 5625 5609 5599 5592 5591 5588 5583 5579 5575 5569 5562 5555 5548 5541 5536 5535 5538 5544 5550 5557 5564 5574 5582 5590 5597 5604 5608 5616 5620 5624 5633 5640 5646 5656 5665 5674 5683 5690
5698 5691 5682 5673 5663 5650 5640 5626 5607 5593 5591 5589 5587 5583 5579 5574 5569 5562 5555 5548 5542 5536 5535 5540 5547 5552 5558 5564 5572 5580 5589 5595 5600 5605 5613 5617 5621 5630 5634 5641 5651 5660 5668 5675 5684
5695 5687 5679 5671 5662 5651 5640 5626 5612 5596 5590 5588 5586 5584 5580 5574 5569 5563 5556 5548 5541 5537 5537 5540 5548 5554 5559 5566 5574 5579 5586 5594 5601 5607 5611 5617 5620 5626 5630 5638 5645 5654 5662 5671 5679
5692 5684 5676 5669 5660 5650 5641 5627 5612 5596 5590 5587 5586 5583 5579 5574 5570 5564 5557 5550 5542 5537 5539 5544 5551 5555 5561 5567 5574 5580 5588 5595 5599 5604 5609 5613 5617 5621 5628 5634 5641 5650 5659 5665 5672
5689 5681 5675 5668 5659 5650 5640 5628 5613 5599 5590 5587 5584 5582 5579 5575 5570 5566 5560 5552 5542 5538 5541 5547 5553 5559 5563 5567 5573 5581 5587 5593 5597 5604 5608 5611 5614 5620 5626 5633 5641 5648 5654 5661 5668
5685 5678 5673 5666 5659 5648 5638 5626 5614 5599 5589 5587 5584 5582 5579 5576 5572 5568 5563 5555 5547 5543 5545 5551 5556 5561 5568 5571 5575 5581 5587 5592 5597 5603 5606 5610 5614 5618 5625 5633 5639 5645 5652 5658 5664
5682 5676 5671 5664 5657 5647 5638 5629 5618 5602 5591 5586 5585 5584 5581 5578 5575 5571 5566 5560 5554 5549 5552 5556 5561 5565 5571 5574 5577 5582 5587 5592 5597 5602 5606 5610 5614 5618 5624 5631 5637 5643 5648 5654 5660
5680 5674 5668 5661 5653 5646 5638 5630 5618 5604 5593 5586 5585 5583 5582 5580 5577 5574 5570 5566 5562 5559 5560 5563 5566 5569 5574 5575 5578 5584 5588 5594 5599 5602 5606 5609 5612 5616 5623 5630 5635 5640 5646 5651 5657
5676 5672 5667 5660 5652 5645 5639 5630 5619 5606 5595 5586 5584 5583 5582 5581 5579 5576 5573 5571 5567 5566 5566 5567 5570 5573 5574 5576 5579 5584 5589 5594 5600 5604 5607 5609 5611 5616 5622 5628 5633 5639 5644 5649 5653
5674 5669 5665 5658 5652 5646 5639 5630 5621 5609 5597 5587 5584 5583 5583 5582 5582 5579 5576 5574 5572 5570 5569 5570 5572 5574 5575 5578 5581 5585 5591 5596 5601 5604 5607 5609 5612 5615 5620 5626 5632 5637 5642 5646 5651
5671 5666 5661 5656 5650 5645 5638 5631 5622 5611 5600 5589 5585 5584 5584 5583 5581 5581 5579 5577 5575 5574 5572 5572 5573 5575 5576 5578 5582 5587 5593 5598 5603 5606 5609 5611 5614 5616 5619 5623 5629 5634 5639 5643 5647